GFSNW_500_avort_324.txt.gz
Vorticity
1 3 -2 -3 7 -1 4 6 5 5 6 6 4 10 7 6 7 8 7 8 10 8 12 11 13 8 12 9 10 13 11 15 14 16 6 17 -1 -5 38 16 16 -1 21 -1
6 -0 -2 1 -4 -5 0 3 5 4 4 6 10 5 9 5 6 7 6 7 10 11 9 11 10 13 10 9 11 9 10 12 13 10 14 6 3 7 -2 7 8 28 58 -11
7 3 4 2 -3 -0 -2 7 4 2 6 8 8 5 6 9 8 6 8 6 8 9 12 6 5 15 15 12 12 11 12 17 11 11 10 8 11 7 16 6 -2 11 42 -2
0 10 4 -4 -7 1 -1 0 2 5 3 6 8 7 9 13 8 5 9 7 8 8 7 10 7 12 14 10 14 13 16 13 12 11 15 14 12 8 6 8 5 2 15 66
3 -0 -1 1 -3 -4 -3 1 2 10 5 4 8 4 6 9 10 6 6 9 9 7 7 8 13 10 4 13 18 15 14 14 15 14 17 10 18 16 12 4 4 7 14 22
5 3 1 -0 -2 -11 -2 2 2 8 5 6 9 8 7 8 13 8 5 7 10 7 7 8 9 10 12 8 13 20 21 18 15 16 18 13 10 18 17 12 7 8 1 7
4 10 21 14 21 13 7 2 8 6 5 7 7 11 9 10 12 9 5 8 6 6 6 8 8 6 10 9 18 12 20 19 17 14 17 15 13 10 16 19 11 4 8 1
8 -7 -0 8 4 7 6 6 6 6 5 5 7 9 11 11 12 10 8 7 6 7 5 5 6 8 9 12 17 19 19 18 16 15 14 15 17 12 15 14 15 13 6 5
5 11 12 11 8 7 7 5 6 7 5 7 10 13 9 9 9 13 7 7 5 6 4 5 5 6 6 15 15 21 23 22 18 16 12 16 16 12 11 16 14 12 13 5
10 5 6 5 8 7 8 7 3 6 6 5 9 15 13 12 9 11 9 7 6 7 3 6 6 9 6 12 14 18 19 18 20 14 15 18 13 15 14 11 9 14 10 14
13 5 5 5 5 7 6 5 7 4 2 12 11 13 13 11 7 9 9 6 7 5 5 6 5 7 8 13 14 20 20 21 15 14 11 15 12 14 7 10 16 9 11 9
9 7 6 2 5 4 1 5 4 2 4 9 18 15 10 12 7 9 9 6 8 3 4 6 5 8 8 14 16 19 18 20 17 19 14 17 17 20 19 18 11 12 10 11
8 5 -1 4 6 1 1 5 4 6 10 11 23 12 14 11 8 9 8 7 8 5 6 5 4 9 10 14 18 22 21 16 16 18 17 17 18 23 25 21 17 16 11 10
2 2 3 -1 5 3 1 5 6 12 10 17 12 13 17 8 5 6 7 10 6 6 7 6 6 12 12 17 19 24 22 18 13 17 18 15 18 20 18 22 21 17 16 12
3 3 1 -1 3 5 5 3 10 15 11 14 15 13 11 10 8 7 6 8 8 4 7 7 8 13 11 17 29 24 20 19 17 16 17 17 18 19 19 20 22 21 19 15
-0 2 4 4 6 3 9 6 13 7 15 13 15 14 12 7 11 6 4 9 6 6 6 7 11 13 20 25 24 25 18 21 17 17 17 18 18 18 17 16 19 22 23 20
3 3 4 8 6 4 8 10 8 19 17 9 11 9 13 8 12 4 5 8 5 6 8 11 13 13 25 22 22 22 19 20 19 19 17 17 18 18 19 17 16 19 21 22
6 0 -1 -2 7 10 11 8 16 19 11 13 14 10 12 9 8 4 7 7 7 6 7 11 11 26 18 25 23 17 18 17 17 17 17 16 16 17 17 18 16 17 19 20
4 2 14 10 10 6 17 11 18 13 9 12 15 17 6 11 5 5 6 7 6 5 10 12 32 14 15 23 19 19 15 14 14 14 15 15 15 15 14 15 16 15 19 19
4 12 -5 -1 14 15 17 10 10 13 8 13 17 6 10 12 8 5 9 5 5 5 12 18 25 17 27 18 18 15 13 14 13 13 14 13 12 15 17 15 14 13 15 19
14 16 24 20 17 16 14 10 15 6 22 8 10 6 8 7 8 6 7 3 4 5 8 20 19 17 19 19 15 13 13 15 17 17 15 15 14 13 15 16 14 14 13 11
23 22 18 17 14 13 12 13 13 21 0 7 10 7 7 10 6 8 4 5 9 10 16 22 22 19 17 15 12 12 13 15 19 23 20 18 17 13 11 13 16 14 9 8
19 23 19 13 1 9 13 18 12 12 9 7 10 8 9 9 7 9 8 11 10 19 18 20 18 17 15 13 12 12 13 17 19 20 21 22 20 18 17 12 11 13 15 8
19 13 8 7 8 10 13 12 10 7 10 11 11 8 9 7 8 10 12 8 17 23 25 20 18 14 12 12 12 12 16 18 19 21 21 22 22 21 19 20 15 12 10 12
16 13 -1 11 14 14 13 10 8 8 10 11 11 8 12 7 9 9 11 17 15 20 15 16 14 13 12 12 12 15 19 21 22 22 21 22 22 20 19 21 20 20 14 7
9 1 18 13 14 14 10 7 8 10 10 12 8 7 7 6 10 14 14 22 18 17 16 12 13 12 13 14 15 19 23 23 21 22 22 22 22 19 18 19 19 20 23 24
5 10 14 13 12 8 6 10 13 12 14 10 9 7 13 9 10 17 23 22 21 15 12 13 14 13 15 15 18 24 23 24 23 23 24 22 22 21 19 18 19 18 20 21

GFSNW_500_avort_327.txt.gz
Vorticity
0 4 -1 10 4 -3 -2 -2 -10 -5 4 5 4 7 7 7 3 10 9 11 9 8 6 9 7 8 7 11 7 16 16 8 19 22 19 16 8 6 5 5 16 6 12 7
1 1 1 2 1 -0 1 2 11 8 7 3 4 6 4 6 6 7 9 10 9 10 7 9 5 8 6 5 9 6 12 9 5 13 15 26 17 10 4 5 6 6 26 31
9 7 6 5 -2 7 14 10 7 5 4 1 5 7 4 5 8 8 9 11 9 7 9 7 6 6 8 6 5 11 14 21 18 10 11 18 19 19 9 5 7 4 7 21
3 4 5 5 4 -0 1 14 4 5 3 8 7 7 5 4 9 9 10 11 9 5 8 8 5 5 4 11 1 8 14 29 23 16 15 17 21 17 17 5 12 10 6 37
1 -2 4 6 5 5 -1 8 9 7 9 7 7 4 4 5 8 11 8 14 10 8 8 7 7 5 3 8 8 7 8 14 17 23 19 20 25 19 15 16 8 15 9 5
5 6 2 6 8 8 4 2 4 6 5 7 4 3 3 6 9 15 7 12 11 8 8 8 6 5 5 5 5 10 16 15 15 24 18 20 25 21 17 11 11 9 9 8
4 4 6 5 7 10 7 6 8 3 6 4 4 5 6 8 9 14 10 10 9 7 8 9 7 4 6 5 5 7 12 15 18 17 15 23 14 20 20 11 11 10 9 10
7 4 -1 2 6 13 10 6 4 3 3 2 4 2 6 9 13 18 9 9 7 8 7 7 6 5 5 5 6 7 14 15 15 19 17 15 13 26 19 20 8 12 11 8
0 1 4 0 4 8 8 0 -1 -1 3 5 3 7 7 11 13 14 16 11 6 7 7 6 6 5 5 4 4 9 15 16 19 20 18 17 20 13 18 22 16 11 14 10
8 3 -2 2 16 9 2 5 3 -0 -1 4 6 10 12 21 11 13 14 7 10 7 4 6 6 7 3 5 5 11 12 12 16 14 16 11 19 18 17 19 23 14 9 10
4 4 6 11 4 3 4 2 4 2 2 8 3 12 13 8 15 14 11 6 11 5 7 7 7 6 3 7 3 8 17 19 19 15 11 19 14 14 13 15 20 21 16 10
4 6 3 7 0 1 2 1 3 2 2 4 8 14 12 15 10 13 9 6 9 8 6 7 7 6 3 6 6 8 14 16 16 26 18 18 16 16 14 21 21 24 20 16
7 9 5 9 5 2 1 1 4 4 7 0 8 17 10 15 11 11 10 10 6 9 5 4 5 7 4 6 8 8 20 14 19 17 28 15 18 15 16 16 22 24 25 19
10 11 10 3 3 -1 4 1 3 14 6 1 14 8 21 12 11 15 13 7 8 7 7 5 7 6 5 6 4 19 17 24 16 17 24 12 18 18 16 16 19 21 21 25
7 7 1 14 14 1 8 1 6 9 14 7 11 6 22 14 9 12 11 16 5 8 7 6 6 7 5 5 14 21 16 14 22 15 19 16 17 17 18 16 17 20 20 22
4 4 5 -2 3 8 -6 5 9 8 6 13 12 15 14 16 9 10 21 8 7 6 8 4 8 6 6 12 13 16 15 24 19 17 18 17 17 16 17 18 17 19 20 20
5 5 6 -0 7 9 9 0 7 11 19 9 16 11 15 15 10 14 16 8 6 8 7 7 6 9 9 12 15 14 22 21 20 18 18 17 16 15 15 16 17 17 21 19
4 6 5 8 11 7 11 11 10 12 13 21 13 11 19 7 14 10 5 7 7 6 8 6 9 8 3 18 10 20 21 18 20 17 17 15 14 14 14 14 17 17 18 19
9 8 11 14 14 18 19 11 4 12 18 15 19 15 9 23 -0 5 13 8 9 5 7 9 6 10 6 12 20 20 18 16 16 16 15 14 13 14 14 14 14 17 17 17
20 21 22 17 16 9 14 17 11 16 12 15 13 17 12 11 12 11 15 8 7 6 7 7 12 13 13 17 20 16 16 15 13 13 14 14 14 16 16 16 15 15 16 16
17 20 27 27 23 18 16 9 14 13 17 13 20 7 10 8 9 14 7 8 4 8 3 9 11 11 21 20 18 16 14 12 13 13 14 14 15 17 17 17 16 15 15 16
54 30 21 17 15 8 11 8 14 19 12 11 9 10 9 12 11 10 8 7 7 6 11 14 14 16 16 18 14 13 12 13 13 13 15 17 20 19 16 17 18 16 15 17
18 25 10 -1 12 -5 12 13 18 11 5 10 9 10 12 12 10 10 9 7 10 10 12 13 16 19 18 15 13 12 11 13 14 15 18 22 23 24 23 18 16 15 16 17
12 21 6 11 2 2 14 17 10 3 7 11 11 13 13 11 12 10 8 9 12 13 16 18 20 18 15 13 12 11 12 14 15 19 22 22 24 23 23 23 20 17 13 15
13 14 9 7 10 6 13 10 6 7 13 12 14 14 16 12 9 8 11 12 15 16 17 20 19 15 13 13 11 12 14 16 19 23 23 23 25 24 24 26 22 20 17 15
14 9 7 6 9 12 10 3 13 14 12 14 15 13 11 2 12 12 11 19 14 15 19 17 16 13 14 13 13 13 15 20 23 23 22 22 23 23 23 24 24 22 19 18
14 7 9 12 13 4 10 12 11 11 14 15 15 11 12 7 9 17 19 19 19 20 19 19 16 15 14 14 13 14 19 24 24 22 21 22 23 22 20 20 21 21 20 19

GFSNW_500_avort_330.txt.gz
Vorticity
7 6 5 4 2 2 4 5 11 3 4 9 3 6 7 6 4 4 5 5 8 10 7 13 9 6 8 8 4 6 3 2 12 15 16 23 35 21 15 12 2 3 21 7
4 5 3 2 1 -1 1 3 8 8 4 4 8 6 6 3 6 4 5 8 10 10 11 10 7 7 8 8 4 3 0 3 3 15 18 19 30 24 17 18 12 5 5 13
5 6 7 4 3 4 5 2 9 6 13 4 4 4 1 3 4 5 4 8 13 8 13 10 6 8 5 8 5 4 5 8 6 9 14 19 25 25 19 14 10 13 6 8
5 5 5 6 6 3 4 4 0 11 11 10 6 6 4 4 3 4 5 8 13 10 14 12 8 7 4 8 7 3 4 5 8 13 8 19 17 34 19 17 12 11 6 8
4 5 5 6 7 8 3 4 3 2 9 7 1 0 2 1 2 5 6 10 14 4 15 11 9 8 4 7 7 6 4 2 3 14 6 12 20 16 30 25 18 11 10 6
5 4 4 6 3 3 2 3 2 3 14 4 5 2 3 3 4 6 9 8 13 11 12 12 8 9 6 7 5 3 5 5 4 11 9 16 23 33 23 27 20 15 12 6
5 5 4 9 6 9 6 1 6 7 4 3 4 2 4 1 4 8 12 12 10 3 14 8 9 10 7 4 6 6 4 4 4 9 5 19 20 21 20 22 23 21 12 8
3 3 5 5 1 2 5 2 11 5 3 2 3 4 2 5 6 11 10 13 11 11 10 7 7 9 7 5 6 6 6 5 6 9 8 8 29 17 21 21 23 20 21 12
3 3 2 2 4 4 6 -1 8 4 3 6 3 1 3 3 13 14 13 11 14 8 7 9 7 10 8 5 6 5 5 5 8 7 11 6 20 15 22 19 34 16 20 17
3 3 3 2 3 5 3 15 2 3 2 -2 1 6 6 5 10 20 11 6 13 7 6 10 9 8 9 7 7 6 5 6 7 3 8 9 16 17 18 17 15 22 26 24
3 3 2 3 1 3 9 11 8 3 5 6 7 8 5 2 21 14 10 8 11 7 4 11 10 11 7 11 5 4 7 6 6 15 11 19 17 17 20 16 19 19 19 23
3 2 2 0 12 17 13 13 3 8 -3 -3 3 10 1 19 10 15 14 7 12 5 7 9 10 16 6 6 5 6 7 3 7 18 14 10 16 16 19 20 16 18 21 22
3 1 15 18 8 15 6 5 -0 -1 8 9 -0 27 -1 7 13 12 13 13 10 8 4 10 15 12 8 7 8 7 8 6 10 12 14 17 16 20 23 15 14 17 20 22
15 17 6 4 7 3 3 3 2 5 6 12 4 -3 12 13 13 19 14 16 9 10 4 13 14 10 9 7 5 8 9 8 7 11 17 10 22 27 18 16 16 17 19 22
11 9 4 4 4 2 2 2 2 5 11 14 10 9 10 11 17 16 18 14 12 3 10 15 10 11 7 5 9 7 5 7 10 11 14 16 21 22 20 15 17 16 17 20
3 2 2 -2 -1 -0 4 -0 3 9 14 10 13 6 12 15 15 16 17 10 5 13 17 2 14 6 7 6 10 8 8 12 8 13 19 20 19 18 18 18 16 15 15 18
3 3 6 8 10 6 5 18 27 26 4 9 11 8 15 18 19 13 10 10 16 15 3 14 10 6 8 7 10 9 10 9 15 16 20 19 16 15 16 16 15 14 14 15
18 13 16 22 11 12 21 18 17 20 17 16 11 13 18 17 15 12 15 16 9 9 10 13 7 9 7 8 8 10 10 13 16 19 19 16 14 16 16 16 15 15 14 13
19 27 19 12 24 26 28 22 22 12 20 10 15 15 16 19 11 16 9 10 12 5 11 11 9 9 9 8 12 12 12 15 17 19 16 14 14 14 16 15 16 16 15 14
3 3 13 6 16 24 30 -5 7 18 22 14 10 15 16 21 12 7 10 10 10 8 10 8 9 12 8 14 10 14 14 17 18 16 15 14 13 14 14 15 15 17 17 16
8 8 5 17 23 16 19 2 34 -3 16 8 10 14 18 7 3 13 8 11 10 7 7 11 11 9 17 12 14 14 16 17 17 15 13 12 13 14 15 16 18 19 19 18
5 7 6 7 8 8 -0 6 12 17 10 9 24 17 11 4 9 9 11 10 11 4 11 10 12 11 12 14 14 16 17 16 15 13 12 12 14 16 18 18 19 23 21 19
7 9 14 16 9 8 -1 26 6 10 11 4 15 4 10 6 12 12 13 12 12 7 11 10 11 13 15 15 17 18 18 17 14 12 11 13 16 19 22 21 20 20 20 22
13 14 14 5 2 24 29 8 7 15 15 6 13 5 9 14 12 12 13 6 11 12 13 14 15 15 15 18 19 18 16 15 14 12 14 16 21 22 24 26 23 22 19 19
26 15 5 19 18 10 4 7 10 10 16 9 5 15 14 12 15 9 10 13 11 14 16 17 17 16 19 18 17 16 15 14 13 14 17 22 25 24 23 25 23 22 21 21
10 15 3 3 14 12 10 10 16 18 10 5 13 11 15 8 12 13 9 15 15 15 18 16 16 18 16 15 15 15 15 14 13 17 22 25 23 22 22 23 23 22 21 21
6 4 -2 17 4 19 17 21 12 3 8 15 18 14 11 10 9 13 17 19 18 17 17 17 16 16 14 14 16 16 15 13 15 21 25 24 22 21 20 19 20 21 21 20

GFSNW_500_avort_333.txt.gz
Vorticity
5 6 5 5 5 7 6 5 8 9 6 6 3 6 8 5 2 5 3 3 2 3 3 12 12 8 12 9 7 7 4 4 6 6 2 10 14 16 10 24 27 19 11 2
6 5 6 7 6 5 4 3 3 7 5 7 3 2 9 6 4 4 4 3 3 6 6 6 14 9 14 7 8 7 1 4 4 9 8 3 8 13 14 15 21 31 16 14
7 8 6 6 4 6 5 6 5 4 6 1 4 8 8 1 4 4 3 3 4 9 9 8 6 12 10 10 7 8 6 7 4 6 4 4 15 13 16 19 18 19 25 17
4 4 4 4 5 5 5 5 7 6 7 1 5 5 8 6 3 5 2 3 3 5 9 11 6 13 6 11 7 8 7 8 5 8 3 4 10 11 10 19 14 21 22 27
3 3 3 3 3 5 5 3 8 6 1 4 -1 6 7 6 5 2 1 7 5 3 14 11 14 10 6 12 9 8 6 4 5 9 5 4 8 6 12 11 17 26 23 29
7 3 3 2 2 2 2 1 6 8 -0 3 11 2 3 6 2 1 3 9 5 5 9 4 15 11 8 6 9 8 12 5 5 7 6 5 6 8 10 10 19 24 24 22
8 10 6 3 2 2 2 3 4 5 2 -1 7 10 6 2 4 4 12 9 1 6 13 1 14 12 10 5 8 10 10 6 6 5 6 5 8 8 10 7 22 21 16 22
14 9 9 8 6 6 5 4 3 5 2 2 12 8 10 4 6 -2 -4 6 7 17 10 6 10 7 13 5 5 11 14 6 5 10 3 3 9 9 7 7 25 16 14 22
7 10 10 9 8 6 4 4 6 5 1 8 12 7 8 6 1 -0 16 4 19 10 10 6 8 9 10 3 8 12 17 8 5 7 5 4 8 7 8 4 36 6 26 18
4 4 3 3 4 4 4 3 14 -7 0 20 9 9 6 3 5 14 3 22 2 17 6 8 12 9 8 7 6 12 17 4 5 6 6 4 14 6 9 18 1 22 19 21
14 5 0 -1 -1 -2 1 0 10 13 5 9 2 2 3 7 6 13 12 8 22 4 10 12 9 11 8 11 3 17 12 5 7 8 5 10 11 8 12 9 10 18 18 18
3 8 11 13 15 15 13 7 5 6 6 4 5 9 11 -1 30 -11 11 12 15 5 10 12 8 13 9 7 7 19 9 4 6 5 8 8 3 12 10 10 14 19 19 17
5 4 5 7 9 11 10 10 12 10 9 7 4 2 16 7 -4 9 15 10 12 12 14 6 10 11 8 5 22 9 12 3 7 5 9 10 7 14 10 12 16 19 19 17
6 6 5 5 3 3 2 2 5 10 18 12 22 5 5 14 20 18 14 14 14 12 12 6 9 8 8 24 7 12 8 1 2 8 12 4 15 11 13 13 18 20 15 16
5 7 7 9 8 7 4 2 3 11 -0 20 22 1 9 4 24 22 13 15 13 11 8 12 6 14 22 9 8 17 0 3 7 9 5 10 11 14 14 18 17 15 17 15
28 23 18 9 15 21 16 9 -11 40 27 1 12 5 12 41 19 15 10 11 11 13 10 8 18 10 16 7 11 8 3 6 9 5 11 10 13 15 16 19 17 16 15 16
9 15 18 20 19 10 20 33 29 13 0 6 -8 -2 39 30 17 11 11 15 15 9 10 15 6 11 13 9 8 2 7 11 7 13 12 13 14 15 19 19 17 16 16 15
9 6 3 4 4 8 15 7 4 9 13 4 8 8 37 7 8 12 16 12 16 17 11 5 8 9 13 6 2 9 11 8 13 11 13 14 16 17 18 16 15 14 15 15
9 14 12 9 -0 1 -3 4 11 7 -1 3 21 13 3 8 10 10 23 20 14 5 7 5 10 10 6 8 11 8 11 11 10 12 15 16 18 17 16 14 13 13 14 15
6 0 1 11 11 10 4 6 4 -2 2 8 2 18 6 23 11 25 15 14 8 7 3 11 9 12 9 9 9 14 10 13 13 15 17 19 16 15 14 13 12 13 14 16
1 -4 2 1 2 4 9 6 6 5 11 8 36 9 10 26 17 9 10 10 4 3 12 12 11 13 8 14 11 13 12 14 15 18 17 16 15 14 13 12 12 14 17 18
8 6 11 8 7 12 8 -4 -2 6 6 28 13 15 15 18 17 10 8 4 10 14 9 16 10 13 11 12 13 13 14 17 17 17 16 16 15 14 13 13 16 19 21 21
30 23 17 21 9 16 6 10 13 25 19 11 13 17 14 10 11 4 9 14 10 14 11 11 12 10 12 14 13 14 18 17 16 17 16 15 15 13 13 18 21 21 21 22
22 24 16 11 16 16 11 37 11 20 6 3 19 13 22 3 3 12 14 12 13 16 14 9 13 13 14 15 16 17 17 17 17 16 16 15 12 13 19 24 22 21 22 23
30 21 14 17 18 22 15 14 14 -2 6 15 10 31 -9 4 12 14 13 14 13 9 14 17 15 15 15 16 17 17 17 16 17 17 16 13 15 20 23 24 21 20 22 24
27 14 11 14 12 12 8 6 5 8 4 28 3 5 10 11 16 16 13 14 15 16 18 15 15 15 15 16 18 17 16 16 18 16 13 15 22 25 23 21 19 20 20 21
13 15 14 13 12 9 3 13 -4 -4 24 26 15 3 15 16 12 14 19 22 18 15 12 14 13 14 15 16 17 16 14 18 17 14 14 21 24 24 20 19 17 17 16 17